Location: Ceske Budejovice
(48.9830°N, 14.4670°E)
Time: 19:11:32
(UTC+02:00)

ISS - Pass Details

Date: 04 July 2022
Orbit: 412 x 419 km, 51.6° (Epoch: 09 August)

Event Time Altitude Azimuth Distance (km) Brightness Sun altitude
Exits shadow 02:35:39 37° 192° (SSW) 668 -3.3 -15.4°
Maximum altitude 02:36:28 46° 150° (SSE) 571 -3.4 -15.4°
Drops below altitude 10° 02:39:42 10° 76° (ENE) 1,501 -0.5 -15.2°
Sets 02:41:51 0° 70° (ENE) 2,369 0.7 -15.0°
